{"data":{"norad_id":55957,"epoch":"2026-05-24T17:49:37.120800Z","epoch_age_seconds":94336,"freshness":"FRESH","line1":"1 55957U 23037AV  26144.74279075  .00000310  00000+0  33735-4 0  9992","line2":"2 55957  70.0001  72.7636 0003072 264.6795  95.4014 14.98329399175860","mean_motion":14.98329399,"eccentricity":0.0003072,"inclination_deg":70.0001,"raan_deg":72.7636,"arg_perigee_deg":264.6795,"mean_anomaly_deg":95.4014,"bstar":3.3735e-5,"rev_number":17586,"period_min":96.107037675498,"perigee_km":569.92264966092,"apogee_km":574.192849315,"semimajor_km":6950.194749488,"source":"CELESTRAK","updated_at":"2026-05-25T13:38:17.919402Z"}}